Kecskemet, Hungary

1:57 AM CEST on September 22, 2017 (GMT +0200)
Kecskemet

Weather History for LHKE - November, 2012

Change the Weather History Date:

Tuesday, November 13, 2012

  Actual Average (LHBP) Record (LHBP)
Temperature  
Mean Temperature 48 °F -  
Max Temperature 51 °F 48 °F 66 °F (1996)
Min Temperature 44 °F 34 °F 19 °F (2003)
Degree Days  
Heating Degree Days 16    
Moisture  
Dew Point 44 °F    
Average Humidity 85    
Maximum Humidity 100    
Minimum Humidity 57    
Precipitation  
Precipitation 0.00 in - - ()
Sea Level Pressure  
Sea Level Pressure 30.37 in    
Wind  
Wind Speed 6 mph ()    
Max Wind Speed 16 mph    
Max Gust Speed 22 mph    
Visibility 3.3 miles    
Events Rain    
Averages and records for this station are not official NWS values.
T = Trace of Precipitation, MM = Missing Value Source: Averaged Metar Reports

Daily Weather History Graph

Daily Weather History Graph

Search for Another Location

Airport or City:

Trip Planner

Search our weather history database for the weather conditions in past years. The results will help you decide how hot, cold, wet, or windy it might be!

Date:

Astronomy

Nov. 13, 2012 Rise Set
Actual Time 6:41 AM CET 4:08 PM CET
Civil Twilight 6:08 AM CET 4:41 PM CET
Nautical Twilight 5:31 AM CET 5:18 PM CET
Astronomical Twilight 4:56 AM CET 5:54 PM CET
Moon 5:57 AM CET (11/13) 3:45 PM CET (11/13)
Length of Visible Light 10h 32m
Length of Day
9h 27m
Waning Crescent, 0% of the Moon is Illuminated
Nov 13
Waning Crescent
Nov 13
New
Nov 20
First Quarter
Nov 28
Full
Dec 6
Last Quarter

Hourly Weather History & Observations

Time (CET) Temp. Windchill Dew Point Humidity Pressure Visibility Wind Dir Wind Speed Gust Speed Precip Events Conditions
12:15 AM 48.2 °F - 48.2 °F 100% 30.27 in 2.5 mi North 4.5 mph - N/A   Overcast
12:36 AM 50.0 °F - 48.2 °F 94% 30.30 in 3.1 mi NNW 2.2 mph - N/A   Overcast
12:45 AM 50.0 °F - 48.2 °F 94% 30.30 in 3.1 mi NNW 4.5 mph - N/A   Overcast
1:15 AM 50.0 °F - 48.2 °F 94% 30.30 in 2.5 mi NNE 4.5 mph - N/A   Mostly Cloudy
1:45 AM 48.2 °F - 48.2 °F 100% 30.30 in 2.2 mi North 4.5 mph - N/A   Mostly Cloudy
2:00 AM - - - N/A% - 3.1 mi Variable 4.5 mph - N/A   Overcast
2:07 AM 48.2 °F - 48.2 °F 100% 30.30 in 1.9 mi North 4.5 mph - N/A   Mostly Cloudy
2:15 AM 48.2 °F - 48.2 °F 100% 30.30 in 1.9 mi North 2.2 mph - N/A   Mostly Cloudy
2:45 AM 48.2 °F - 48.2 °F 100% 30.30 in 1.9 mi North 2.2 mph - N/A   Overcast
3:15 AM 48.2 °F - 48.2 °F 100% 30.30 in 1.9 mi NNW 4.5 mph - N/A   Overcast
3:45 AM 48.2 °F - 48.2 °F 100% 30.30 in 1.9 mi NNW 4.5 mph - N/A   Overcast
4:14 AM 50.0 °F - 48.2 °F 94% 30.30 in 1.9 mi NNW 4.5 mph - N/A Rain Light Rain
4:15 AM 50.0 °F - 48.2 °F 94% 30.30 in 2.2 mi NNW 4.5 mph - N/A Rain Light Rain
4:45 AM 48.2 °F - 48.2 °F 100% 30.30 in 2.2 mi NNW 4.5 mph - N/A Rain Light Rain
5:15 AM 48.2 °F - 48.2 °F 100% 30.30 in 1.9 mi North 4.5 mph - N/A   Light Drizzle
5:45 AM - - - N/A% - 3.1 mi Variable 4.5 mph - N/A   Light Drizzle
5:54 AM 48.2 °F - 48.2 °F 100% 30.33 in 1.9 mi NNW 4.5 mph - N/A Rain Light Rain
6:15 AM 48.2 °F - 48.2 °F 100% 30.33 in 1.6 mi NW 2.2 mph - N/A Rain Rain
6:45 AM 48.2 °F - 48.2 °F 100% 30.33 in 1.2 mi NW 4.5 mph - N/A Rain Rain
6:57 AM 48.2 °F - 48.2 °F 100% 30.33 in 0.9 mi NNW 4.5 mph - N/A Rain Rain
7:15 AM 48.2 °F - 48.2 °F 100% 30.33 in 0.9 mi NNW 4.5 mph - N/A Rain Rain
7:45 AM 48.2 °F - 48.2 °F 100% 30.36 in 0.9 mi NNW 4.5 mph - N/A Rain Light Rain
8:15 AM 48.2 °F - 48.2 °F 100% 30.36 in 1.2 mi NNE 6.7 mph - N/A Rain Light Rain
8:45 AM - - - N/A% - 1.9 mi NNE 11.2 mph - N/A   Overcast
9:15 AM 50.0 °F - 48.2 °F 94% 30.36 in 1.6 mi NNE 8.9 mph - N/A Rain Light Rain
9:35 AM 50.0 °F - 48.2 °F 94% 30.39 in 1.9 mi NE 11.2 mph - N/A Rain Light Rain
9:45 AM 50.0 °F - 48.2 °F 94% 30.39 in 2.5 mi NE 8.9 mph - N/A Rain Light Rain
10:07 AM 50.0 °F - 48.2 °F 94% 30.39 in 3.7 mi NE 8.9 mph - N/A   Overcast
10:15 AM 50.0 °F - 48.2 °F 94% 30.39 in 4.3 mi NE 8.9 mph - N/A   Overcast
10:45 AM 51.8 °F - 48.2 °F 88% 30.39 in 5.6 mi NE 8.9 mph - N/A   Mostly Cloudy
11:15 AM 51.8 °F - 48.2 °F 88% 30.39 in 6.2 mi NNE 11.2 mph - N/A   Mostly Cloudy
11:45 AM - - - N/A% - 6.2 mi NNE 11.2 mph - N/A   Mostly Cloudy
12:15 PM 51.8 °F - 46.4 °F 82% 30.39 in 6.2 mi NNE 11.2 mph 22.4 mph N/A   Overcast
12:45 PM 51.8 °F - 46.4 °F 82% 30.39 in 6.2 mi NNE 11.2 mph - N/A   Overcast
1:15 PM 51.8 °F - 44.6 °F 76% 30.39 in 6.2 mi NNE 15.7 mph - N/A   Mostly Cloudy
1:45 PM 51.8 °F - 42.8 °F 71% 30.39 in 6.2 mi NNE 11.2 mph - N/A   Mostly Cloudy
2:15 PM 51.8 °F - 41.0 °F 67% 30.42 in 6.2 mi NNE 11.2 mph - N/A   Mostly Cloudy
2:45 PM - - - N/A% - 6.2 mi NNE 11.2 mph - N/A   Clear
3:15 PM 51.8 °F - 41.0 °F 67% 30.42 in - NNE 8.9 mph - N/A   Clear
3:45 PM 51.8 °F - 42.8 °F 71% 30.42 in - NNE 8.9 mph - N/A   Clear
4:15 PM 50.0 °F - 42.8 °F 76% 30.42 in - NE 4.5 mph - N/A   Clear
4:45 PM 50.0 °F - 42.8 °F 76% 30.42 in - NE 4.5 mph - N/A   Clear
4:55 PM - - - N/A% - 6.2 mi NNE 4.5 mph - N/A   Clear
5:15 PM 48.2 °F - 42.8 °F 82% 30.45 in - NE 4.5 mph - N/A   Clear
5:45 PM - - - N/A% - 0.9 mi NNE 4.5 mph - N/A   Clear
6:15 PM 50.0 °F - 39.2 °F 66% 30.45 in - NNE 6.7 mph - N/A   Clear
6:45 PM 50.0 °F - 37.4 °F 62% 30.45 in - NE 8.9 mph - N/A   Clear
7:15 PM 48.2 °F - 35.6 °F 62% 30.45 in - NE 13.4 mph - N/A   Clear
7:45 PM 48.2 °F - 35.6 °F 62% 30.45 in - NE 11.2 mph - N/A   Clear
8:15 PM 46.4 °F 42.0 °F 33.8 °F 62% 30.45 in - NE 8.9 mph - N/A   Clear
8:45 PM - - - N/A% - - NNE 6.7 mph - N/A   Clear
9:15 PM 46.4 °F 40.5 °F 33.8 °F 62% 30.48 in 6.2 mi NE 13.4 mph - N/A   Overcast
9:45 PM 46.4 °F 40.5 °F 33.8 °F 62% 30.48 in 6.2 mi ENE 13.4 mph - N/A   Overcast
10:15 PM 46.4 °F 39.9 °F 32.0 °F 57% 30.48 in 6.2 mi NE 15.7 mph - N/A   Overcast
10:45 PM 46.4 °F 39.9 °F 32.0 °F 57% 30.48 in 6.2 mi NE 15.7 mph - N/A   Overcast
11:15 PM 44.6 °F 38.2 °F 32.0 °F 61% 30.48 in - NE 13.4 mph - N/A   Clear
11:45 PM - - - N/A% - 0.9 mi North - - N/A   Unknown